Torna al catalogo

DELTA 1 DEB

AttivoSSO
NORAD 13562·DEBRIS·🇺🇸 United States

Lanciato Mar 5, 1978 da Vandenberg Space Force Base

Loading…

Prossimi Passaggi (prossime 24 ore)

TLE

AggiornatoSource: Space-Track

Epoca: Sep 14, 2026, 22:15 UTC

1 13562U 78026EZ  26257.92762911  .00000686  00000-0  24708-3 0  9993
2 13562  98.6928 292.8486 0034984 174.0588 307.8438 14.36541694366901

Traccia DELTA 1 DEB in tempo reale con AllMySat

Download on the App Store